Skip Page Navigation
NASA JPL Caltech
NASA Logo - Jet Propulsion Laboratory + View the NASA Portal
+ Center for Near-Earth Object Studies
JPL Home Earth Solar System Stars & Galaxies Technology
JPL Solar System Dynamics
BODIES ORBITS EPHEMERIDES TOOLS PHYSICAL DATA DISCOVERY FAQ SITE MAP
JPL Small-Body Database Browser
Search: [ help ]  
24940 Sankichiyama (1997 JY4)
Classification: Main-belt Asteroid          SPK-ID: 2024940
Ephemeris | Orbit Diagram | Orbital Elements | Mission Design | Physical Parameters | Discovery Circumstances ]

[ show orbit diagram ]
Orbital Elements at Epoch 2459200.5 (2020-Dec-17.0) TDB
Reference: JPL 34 (heliocentric ecliptic J2000)
 Element Value Uncertainty (1-sigma)   Units 
e .1440149200521091 2.6346e-08  
a 2.526625227304917 8.9584e-09 au
q 2.162753497192958 6.6461e-08 au
i 11.95452309261867 3.7926e-06 deg
node 51.45637311176956 1.4429e-05 deg
peri 264.8772684766527 2.084e-05 deg
M 245.4911232106039 1.6491e-05 deg
tp 2459667.101706644256
(2022-Mar-28.60170664)
6.8119e-05 TDB
period 1466.930941090912
4.02
7.8017e-06
2.136e-08
d
yr
n .2454103256778256 1.3052e-09 deg/d
Q 2.890496957416877 1.0249e-08 au
  Orbit Determination Parameters
   # obs. used (total)      2140  
   data-arc span      8727 days (23.89 yr)  
   first obs. used      1997-05-01  
   last obs. used      2021-03-23  
   planetary ephem.      DE441  
   SB-pert. ephem.      SB441-N16  
   condition code      0  
   norm. resid. RMS      .48399  
   source      ORB  
   producer      Otto Matic  
   solution date      2021-May-04 03:39:02  

Additional Information
 Earth MOID = 1.18714 au 
 Jupiter MOID = 2.43602 au 
 T_jup = 3.409 
[ show covariance matrix ]

Ephemeris | Orbit Diagram | Orbital Elements | Mission Design | Physical Parameters | Discovery Circumstances ]

Physical Parameter Table
Parameter Symbol Value Units Sigma Reference Notes
absolute magnitude H 14.08   n/a MPCxxxxx  
rotation period rot_per 2.76397 h n/a LCDB (Rev. 2020-October); Warner et al., 2009 Result based on less than full coverage, so that the period may be wrong by 30 percent or so.
Published Reference List:
[Pal, A.; Szakats, R.; Kiss, C.; Bodi, A.; et al. (2019) Ap. J. Supl. Ser. 247, id.26.]

24940 Sankichiyama           Discovered 1997 May 1 by T. Okuni at Nanyo.
Sankichiyama mountain is located to the east of Kaminoyama, a hot-spring town in Yamagata prefecture. The mountain is loved by citizens as a hiking course.
NOTE: some special characters may not display properly (any characters within {} are an attempt to place the proper accent above a character)
Reference: 20110715/MPCPages.arcLast Updated: 2011-07-20

Alternate Designations
 1997 JY4 = 1998 VO10 
Ephemeris | Orbit Diagram | Orbital Elements | Mission Design | Physical Parameters | Discovery Circumstances ]
ABOUT SSD CREDITS/AWARDS PRIVACY/COPYRIGHT GLOSSARY LINKS
FirstGov 2021-May-17 01:40 UT
(server date/time)  
NASA Home Page
Site Manager:   Ryan S. Park
Webmaster  Alan B. Chamberlin